1 Minute Report
Date Time Wind Direction Wind Speed Wind Gust Wind Variable Altimeter Temperature Dewpoint Relative Humidity Visibility Ceiling Precip Present Weather Density Alt Wind Chill Heat Index
16/04/20 06:14 350 10 N/A N/A 30.01 52(F), 11(C) 46(F), 8(C) 82% 5 SCT004 BKN033 OVC040 N/A N/A N/A 49 F N/A 4624
16/04/20 06:13 350 10 N/A N/A 30.01 52(F), 11(C) 46(F), 8(C) 82% 5 SCT004 BKN033 OVC040 N/A N/A N/A 49 F N/A 4623
16/04/20 06:12 340 09 N/A N/A 30.01 52(F), 11(C) 46(F), 8(C) 82% 6 SCT004 BKN033 OVC040 N/A N/A N/A 49 F N/A 4622
16/04/20 06:11 340 09 N/A N/A 30.01 52(F), 11(C) 46(F), 8(C) 82% 6 SCT004 BKN033 OVC040 N/A N/A N/A 49 F N/A 4621
16/04/20 06:10 350 09 N/A N/A 30.01 52(F), 11(C) 46(F), 8(C) 82% 7 SCT004 BKN033 OVC040 N/A N/A N/A 49 F N/A 4620
16/04/20 06:09 350 09 N/A N/A 30.01 52(F), 11(C) 46(F), 8(C) 82% 7 SCT004 BKN033 OVC040 N/A N/A N/A 49 F N/A 4619
16/04/20 06:08 350 10 N/A N/A 30.01 52(F), 11(C) 46(F), 8(C) 82% 7 SCT004 BKN033 OVC040 N/A N/A N/A 49 F N/A 4618
16/04/20 06:07 350 10 N/A N/A 30.01 52(F), 11(C) 46(F), 8(C) 82% 7 SCT004 BKN035 OVC040 N/A N/A N/A 49 F N/A 4617
16/04/20 06:06 350 10 N/A N/A 30.01 52(F), 11(C) 46(F), 8(C) 82% 7 SCT004 BKN035 OVC040 N/A N/A N/A 49 F N/A 4616
16/04/20 06:05 360 10 N/A N/A 30.01 52(F), 11(C) 46(F), 8(C) 82% 7 SCT004 BKN035 OVC040 N/A N/A N/A 49 F N/A 4615
16/04/20 06:04 360 11 N/A N/A 30.01 52(F), 11(C) 46(F), 8(C) 82% 7 SCT004 BKN035 OVC044 N/A N/A N/A 48 F N/A 4614
16/04/20 06:03 360 12 N/A N/A 30.01 52(F), 11(C) 46(F), 8(C) 82% 7 SCT004 BKN035 OVC044 N/A N/A N/A 48 F N/A 4613
16/04/20 06:02 360 11 N/A N/A 30.01 52(F), 11(C) 46(F), 8(C) 82% 7 SCT004 BKN032 OVC040 N/A N/A N/A 48 F N/A 4612
16/04/20 06:01 360 09 N/A N/A 30.01 52(F), 11(C) 46(F), 8(C) 82% 7 SCT004 BKN032 OVC040 N/A N/A N/A 49 F N/A 4611
16/04/20 06:00 360 11 N/A N/A 30.01 52(F), 11(C) 46(F), 8(C) 82% 7 BKN004 BKN032 OVC040 N/A N/A N/A 48 F N/A 4610
16/04/20 05:59 360 13 N/A N/A 30.01 52(F), 11(C) 46(F), 8(C) 82% 7 BKN004 BKN032 OVC040 N/A N/A N/A 48 F N/A 4609
16/04/20 05:58 360 12 N/A N/A 30.01 52(F), 11(C) 46(F), 8(C) 82% 7 BKN004 BKN032 OVC040 N/A N/A N/A 48 F N/A 4608
16/04/20 05:57 010 12 N/A N/A 30.01 52(F), 11(C) 46(F), 8(C) 82% 7 BKN004 BKN032 OVC040 N/A N/A N/A 48 F N/A 4607
16/04/20 05:56 360 12 N/A N/A 30.02 52(F), 11(C) 46(F), 8(C) 82% 7 BKN004 OVC032 N/A N/A N/A 48 F N/A 4606
16/04/20 05:55 360 13 N/A N/A 30.02 52(F), 11(C) 46(F), 8(C) 82% 7 BKN004 OVC032 N/A N/A N/A 48 F N/A 4605
16/04/20 05:54 360 12 N/A N/A 30.02 52(F), 11(C) 46(F), 8(C) 82% 7 BKN004 OVC032 N/A N/A N/A 48 F N/A 4604
16/04/20 05:53 360 12 N/A N/A 30.02 52(F), 11(C) 46(F), 8(C) 82% 7 BKN004 OVC032 N/A N/A N/A 48 F N/A 4603
16/04/20 05:52 350 13 N/A N/A 30.02 52(F), 11(C) 46(F), 8(C) 82% 7 BKN004 OVC032 N/A N/A N/A 48 F N/A 4602
16/04/20 05:51 350 13 N/A N/A 30.02 52(F), 11(C) 46(F), 8(C) 82% 7 BKN004 OVC032 N/A N/A N/A 48 F N/A 4601
16/04/20 05:50 350 12 N/A N/A 30.02 52(F), 11(C) 46(F), 8(C) 82% 7 BKN004 OVC032 N/A N/A N/A 48 F N/A 4600
16/04/20 05:49 350 11 N/A N/A 30.02 52(F), 11(C) 46(F), 8(C) 82% 7 BKN004 OVC032 N/A N/A N/A 48 F N/A 4599
16/04/20 05:48 350 11 N/A N/A 30.02 52(F), 11(C) 46(F), 8(C) 82% 7 BKN004 OVC032 N/A N/A N/A 48 F N/A 4598
16/04/20 05:47 340 11 N/A N/A 30.02 52(F), 11(C) 46(F), 8(C) 82% 7 BKN004 OVC032 N/A N/A N/A 48 F N/A 4597
16/04/20 05:46 340 12 N/A N/A 30.02 52(F), 11(C) 46(F), 8(C) 82% 7 BKN004 OVC032 N/A N/A N/A 48 F N/A 4596
16/04/20 05:45 340 13 N/A N/A 30.02 52(F), 11(C) 46(F), 8(C) 82% 7 BKN004 OVC032 N/A N/A N/A 48 F N/A 4595
16/04/20 05:44 340 12 N/A N/A 30.02 52(F), 11(C) 46(F), 8(C) 82% 7 BKN004 OVC032 N/A N/A N/A 48 F N/A 4594
16/04/20 05:43 340 11 N/A N/A 30.02 52(F), 11(C) 46(F), 8(C) 82% 7 BKN004 OVC032 N/A N/A N/A 48 F N/A 4593
16/04/20 05:42 340 10 N/A N/A 30.02 52(F), 11(C) 46(F), 8(C) 82% 7 BKN004 OVC032 N/A N/A N/A 49 F N/A 4592
16/04/20 05:41 340 10 N/A N/A 30.02 52(F), 11(C) 46(F), 8(C) 82% 7 BKN004 OVC032 N/A N/A N/A 49 F N/A 4591
16/04/20 05:40 340 09 N/A N/A 30.02 52(F), 11(C) 46(F), 8(C) 82% 7 BKN004 OVC032 N/A N/A N/A 49 F N/A 4590
16/04/20 05:39 350 08 N/A N/A 30.02 52(F), 11(C) 46(F), 8(C) 82% 7 BKN004 OVC032 N/A N/A N/A 49 F N/A 4589
16/04/20 05:38 350 09 N/A N/A 30.02 52(F), 11(C) 46(F), 8(C) 82% 7 SCT004 OVC032 N/A N/A N/A 49 F N/A 4588
16/04/20 05:37 350 10 N/A N/A 30.02 52(F), 11(C) 46(F), 8(C) 82% 7 SCT004 OVC034 N/A N/A N/A 49 F N/A 4587
16/04/20 05:36 350 10 N/A N/A 30.02 52(F), 11(C) 46(F), 8(C) 82% 7 BKN004 OVC034 N/A N/A N/A 49 F N/A 4586
16/04/20 05:35 360 10 N/A N/A 30.02 52(F), 11(C) 46(F), 8(C) 82% 7 BKN004 OVC034 N/A N/A N/A 49 F N/A 4585
16/04/20 05:34 360 12 N/A N/A 30.02 52(F), 11(C) 46(F), 8(C) 82% 6 BKN004 OVC034 N/A N/A N/A 48 F N/A 4584
16/04/20 05:33 360 12 N/A N/A 30.02 52(F), 11(C) 46(F), 8(C) 82% 6 BKN004 OVC034 N/A N/A N/A 48 F N/A 4583
16/04/20 05:32 010 12 N/A N/A 30.02 52(F), 11(C) 46(F), 8(C) 82% 6 BKN004 OVC034 N/A N/A N/A 48 F N/A 4582
16/04/20 05:31 010 12 N/A N/A 30.02 52(F), 11(C) 46(F), 8(C) 82% 6 BKN004 OVC034 N/A N/A N/A 48 F N/A 4581
16/04/20 05:30 010 11 N/A N/A 30.02 52(F), 11(C) 46(F), 8(C) 82% 6 BKN004 OVC034 N/A N/A N/A 48 F N/A 4580
16/04/20 05:29 010 11 N/A N/A 30.02 52(F), 11(C) 46(F), 8(C) 82% 7 BKN004 OVC034 N/A N/A N/A 48 F N/A 4579
16/04/20 05:28 010 11 N/A N/A 30.02 52(F), 11(C) 46(F), 8(C) 82% 7 BKN004 OVC034 N/A N/A N/A 48 F N/A 4578
16/04/20 05:27 010 12 N/A N/A 30.02 52(F), 11(C) 46(F), 8(C) 82% 7 BKN004 OVC034 N/A N/A N/A 48 F N/A 4577
16/04/20 05:26 360 11 N/A N/A 30.02 52(F), 11(C) 46(F), 8(C) 82% 7 BKN004 OVC034 N/A N/A N/A 48 F N/A 4576
16/04/20 05:25 010 10 N/A N/A 30.02 52(F), 11(C) 46(F), 8(C) 82% 7 BKN004 OVC034 N/A N/A N/A 49 F N/A 4575
16/04/20 05:24 360 10 N/A N/A 30.02 52(F), 11(C) 46(F), 8(C) 82% 7 BKN004 OVC034 N/A N/A N/A 49 F N/A 4574
16/04/20 05:23 360 11 N/A N/A 30.02 52(F), 11(C) 46(F), 8(C) 82% 7 BKN004 OVC034 N/A N/A N/A 48 F N/A 4573
16/04/20 05:22 360 10 N/A N/A 30.02 52(F), 11(C) 46(F), 8(C) 82% 8 BKN004 OVC034 N/A N/A N/A 49 F N/A 4572
16/04/20 05:21 360 09 N/A N/A 30.02 52(F), 11(C) 46(F), 8(C) 82% 8 BKN004 OVC034 N/A N/A N/A 49 F N/A 4571
16/04/20 05:20 360 10 N/A N/A 30.02 52(F), 11(C) 46(F), 8(C) 82% 8 SCT004 OVC034 N/A N/A N/A 49 F N/A 4570
16/04/20 05:19 360 12 N/A N/A 30.02 52(F), 11(C) 46(F), 8(C) 82% 8 SCT004 BKN034 OVC043 N/A N/A N/A 48 F N/A 4569
16/04/20 05:18 360 12 N/A N/A 30.02 52(F), 11(C) 46(F), 8(C) 82% 8 SCT004 BKN034 OVC043 N/A N/A N/A 48 F N/A 4568
16/04/20 05:17 360 12 N/A N/A 30.02 52(F), 11(C) 46(F), 8(C) 82% 8 SCT004 BKN034 OVC043 N/A N/A N/A 48 F N/A 4567
16/04/20 05:16 360 12 N/A N/A 30.02 52(F), 11(C) 46(F), 8(C) 82% 9 SCT004 BKN034 OVC043 N/A N/A N/A 48 F N/A 4566
16/04/20 05:15 360 12 N/A N/A 30.03 52(F), 11(C) 46(F), 8(C) 82% 8 FEW004 BKN034 OVC045 N/A N/A N/A 48 F N/A 4565
16/04/20 05:14 360 11 N/A N/A 30.03 52(F), 11(C) 46(F), 8(C) 82% 8 FEW004 BKN034 OVC045 N/A N/A N/A 48 F N/A 4564
16/04/20 05:13 360 10 N/A N/A 30.03 52(F), 11(C) 46(F), 8(C) 82% 8 FEW004 BKN034 OVC045 N/A N/A N/A 49 F N/A 4563
16/04/20 05:12 360 11 N/A N/A 30.03 52(F), 11(C) 46(F), 8(C) 82% 8 BKN034 OVC045 N/A N/A N/A 48 F N/A 4562
16/04/20 05:11 360 10 N/A N/A 30.03 52(F), 11(C) 46(F), 8(C) 82% 8 BKN034 OVC045 N/A N/A N/A 49 F N/A 4561
16/04/20 05:10 360 10 N/A N/A 30.03 52(F), 11(C) 46(F), 8(C) 82% 8 BKN034 OVC045 N/A N/A N/A 49 F N/A 4560
16/04/20 05:09 360 10 N/A N/A 30.03 52(F), 11(C) 46(F), 8(C) 82% 8 BKN034 OVC045 N/A N/A N/A 49 F N/A 4559
16/04/20 05:08 360 11 N/A N/A 30.03 52(F), 11(C) 46(F), 8(C) 82% 8 BKN034 OVC045 N/A N/A N/A 48 F N/A 4558
16/04/20 05:07 360 11 N/A N/A 30.03 52(F), 11(C) 46(F), 8(C) 82% 8 BKN034 OVC045 N/A N/A N/A 48 F N/A 4557
16/04/20 05:06 360 11 N/A N/A 30.03 52(F), 11(C) 46(F), 8(C) 82% 8 BKN034 OVC045 N/A N/A N/A 48 F N/A 4556
16/04/20 05:05 360 10 N/A N/A 30.03 52(F), 11(C) 46(F), 8(C) 82% 8 BKN034 BKN040 OVC045 N/A N/A N/A 49 F N/A 4555
16/04/20 05:04 010 10 N/A N/A 30.03 52(F), 11(C) 46(F), 8(C) 82% 8 FEW029 BKN036 OVC045 N/A N/A N/A 49 F N/A 4554
16/04/20 05:03 010 11 N/A N/A 30.03 52(F), 11(C) 46(F), 8(C) 82% 8 FEW029 BKN036 OVC045 N/A N/A N/A 48 F N/A 4553
16/04/20 05:02 010 11 N/A N/A 30.03 52(F), 11(C) 46(F), 8(C) 82% 8 FEW029 BKN036 OVC045 N/A N/A N/A 48 F N/A 4552
16/04/20 05:01 010 10 N/A N/A 30.03 52(F), 11(C) 46(F), 8(C) 82% 9 FEW027 BKN036 OVC045 N/A N/A N/A 49 F N/A 4551
16/04/20 05:00 010 10 N/A N/A 30.03 52(F), 11(C) 46(F), 8(C) 82% 9 FEW027 BKN036 OVC045 N/A N/A N/A 49 F N/A 4550
16/04/20 04:59 010 10 N/A N/A 30.03 52(F), 11(C) 46(F), 8(C) 82% 9 FEW027 BKN036 OVC045 N/A N/A N/A 49 F N/A 4549
16/04/20 04:58 010 10 N/A N/A 30.04 52(F), 11(C) 46(F), 8(C) 82% 9 FEW018 BKN036 OVC045 N/A N/A N/A 49 F N/A 4548
16/04/20 04:57 010 10 N/A N/A 30.04 52(F), 11(C) 46(F), 8(C) 82% 9 FEW018 BKN036 OVC045 N/A N/A N/A 49 F N/A 4547
16/04/20 04:56 010 10 N/A N/A 30.04 52(F), 11(C) 46(F), 8(C) 82% 10 FEW018 BKN036 OVC045 N/A N/A N/A 49 F N/A 4546
16/04/20 04:55 010 10 N/A N/A 30.04 52(F), 11(C) 46(F), 8(C) 82% 10+ FEW018 SCT027 BKN036 N/A N/A N/A 49 F N/A 4545
16/04/20 04:54 010 10 N/A N/A 30.04 52(F), 11(C) 46(F), 8(C) 82% 10+ FEW018 SCT027 BKN036 N/A N/A N/A 49 F N/A 4544
16/04/20 04:53 010 11 N/A N/A 30.04 52(F), 11(C) 46(F), 8(C) 82% 10+ FEW018 SCT027 BKN036 N/A N/A N/A 48 F N/A 4543
16/04/20 04:52 010 10 N/A N/A 30.04 52(F), 11(C) 46(F), 8(C) 82% 10+ FEW018 SCT027 BKN036 N/A N/A N/A 49 F N/A 4542
16/04/20 04:51 010 10 N/A N/A 30.04 52(F), 11(C) 46(F), 8(C) 82% 10 FEW018 SCT027 BKN036 N/A N/A N/A 49 F N/A 4541
16/04/20 04:50 010 10 N/A N/A 30.04 52(F), 11(C) 46(F), 8(C) 82% 10 FEW018 SCT027 BKN034 N/A N/A N/A 49 F N/A 4540
16/04/20 04:49 010 10 N/A N/A 30.04 52(F), 11(C) 46(F), 8(C) 82% 10 FEW018 SCT027 BKN034 N/A N/A N/A 49 F N/A 4539
16/04/20 04:48 010 10 N/A N/A 30.04 52(F), 11(C) 46(F), 8(C) 82% 10 FEW018 SCT027 BKN034 N/A N/A N/A 49 F N/A 4538
16/04/20 04:47 010 09 N/A N/A 30.04 52(F), 11(C) 46(F), 8(C) 82% 10 FEW018 SCT027 BKN034 N/A N/A N/A 49 F N/A 4537
16/04/20 04:46 010 10 N/A N/A 30.04 52(F), 11(C) 46(F), 8(C) 82% 10 FEW018 SCT027 BKN032 N/A N/A N/A 49 F N/A 4536
16/04/20 04:45 010 09 N/A N/A 30.04 52(F), 11(C) 46(F), 8(C) 82% 10 FEW018 SCT027 BKN032 N/A N/A N/A 49 F N/A 4535
16/04/20 04:44 010 09 N/A N/A 30.04 52(F), 11(C) 46(F), 8(C) 82% 10 FEW018 SCT027 BKN032 N/A N/A N/A 49 F N/A 4534
16/04/20 04:43 010 09 N/A N/A 30.05 52(F), 11(C) 46(F), 8(C) 82% 10 FEW018 BKN030 OVC047 N/A N/A N/A 49 F N/A 4533
16/04/20 04:42 010 10 N/A N/A 30.05 52(F), 11(C) 46(F), 8(C) 82% 10 FEW018 BKN030 OVC047 N/A N/A N/A 49 F N/A 4532
16/04/20 04:41 010 10 N/A N/A 30.04 52(F), 11(C) 46(F), 8(C) 82% 10 FEW018 BKN030 OVC047 N/A N/A N/A 49 F N/A 4531
16/04/20 04:40 010 11 N/A N/A 30.04 52(F), 11(C) 46(F), 8(C) 82% 10 FEW018 BKN030 OVC047 N/A N/A N/A 48 F N/A 4530
16/04/20 04:39 010 11 N/A N/A 30.04 52(F), 11(C) 46(F), 8(C) 82% 10+ FEW018 BKN030 OVC038 N/A N/A N/A 48 F N/A 4529
16/04/20 04:38 010 11 N/A N/A 30.04 52(F), 11(C) 46(F), 8(C) 82% 10+ FEW018 BKN027 OVC034 N/A N/A N/A 48 F N/A 4528
16/04/20 04:37 360 11 N/A N/A 30.04 52(F), 11(C) 46(F), 8(C) 82% 10+ FEW018 BKN027 OVC034 N/A N/A N/A 48 F N/A 4527
16/04/20 04:36 360 11 N/A N/A 30.04 52(F), 11(C) 46(F), 8(C) 82% 10+ SCT018 BKN027 OVC032 N/A N/A N/A 48 F N/A 4526
16/04/20 04:35 360 11 N/A N/A 30.04 52(F), 11(C) 46(F), 8(C) 82% 10+ SCT018 BKN027 OVC032 N/A N/A N/A 48 F N/A 4525
16/04/20 04:34 010 12 N/A N/A 30.04 52(F), 11(C) 46(F), 8(C) 82% 10+ SCT018 BKN027 OVC032 N/A N/A N/A 48 F N/A 4524
16/04/20 04:33 360 12 N/A N/A 30.04 52(F), 11(C) 46(F), 8(C) 82% 10+ SCT018 BKN027 OVC034 N/A N/A N/A 48 F N/A 4523
16/04/20 04:32 360 12 N/A N/A 30.05 52(F), 11(C) 46(F), 8(C) 82% 10+ SCT018 BKN027 OVC034 N/A N/A N/A 48 F N/A 4522
16/04/20 04:31 360 11 N/A N/A 30.05 52(F), 11(C) 46(F), 8(C) 82% 10+ SCT018 BKN027 OVC034 N/A N/A N/A 48 F N/A 4521
16/04/20 04:30 360 10 N/A N/A 30.05 52(F), 11(C) 46(F), 8(C) 82% 10+ SCT018 BKN025 OVC034 N/A N/A N/A 49 F N/A 4520
16/04/20 04:29 360 10 N/A N/A 30.05 52(F), 11(C) 46(F), 8(C) 82% 10+ FEW018 BKN025 OVC034 N/A N/A N/A 49 F N/A 4519
16/04/20 04:28 360 10 N/A N/A 30.05 52(F), 11(C) 46(F), 8(C) 82% 10+ FEW018 BKN025 OVC034 N/A N/A N/A 49 F N/A 4518
16/04/20 04:27 360 11 N/A N/A 30.05 52(F), 11(C) 46(F), 8(C) 82% 10+ FEW018 BKN025 OVC034 N/A N/A N/A 48 F N/A 4517
16/04/20 04:26 360 10 N/A N/A 30.05 52(F), 11(C) 46(F), 8(C) 82% 10+ FEW018 BKN025 OVC034 N/A N/A N/A 49 F N/A 4516
16/04/20 04:25 360 10 N/A N/A 30.05 52(F), 11(C) 46(F), 8(C) 82% 10+ SCT021 OVC032 N/A N/A N/A 49 F N/A 4515
16/04/20 04:24 360 09 N/A N/A 30.05 52(F), 11(C) 46(F), 8(C) 82% 10+ FEW016 BKN025 OVC032 N/A N/A N/A 49 F N/A 4514
16/04/20 04:23 350 10 N/A N/A 30.05 52(F), 11(C) 46(F), 8(C) 82% 10+ FEW016 SCT022 BKN028 N/A N/A N/A 49 F N/A 4513
16/04/20 04:22 350 11 N/A N/A 30.05 52(F), 11(C) 46(F), 8(C) 82% 10+ FEW016 SCT022 BKN028 N/A N/A N/A 48 F N/A 4512
16/04/20 04:21 360 10 N/A N/A 30.05 52(F), 11(C) 46(F), 8(C) 82% 10+ FEW016 SCT022 BKN028 N/A N/A N/A 49 F N/A 4511
16/04/20 04:20 360 10 N/A N/A 30.05 52(F), 11(C) 46(F), 8(C) 82% 10+ FEW014 SCT022 OVC028 N/A N/A N/A 49 F N/A 4510
16/04/20 04:19 360 10 N/A N/A 30.05 52(F), 11(C) 46(F), 8(C) 82% 10+ FEW014 SCT022 OVC028 N/A N/A N/A 49 F N/A 4509
16/04/20 04:18 360 10 N/A N/A 30.05 52(F), 11(C) 46(F), 8(C) 82% 10+ FEW014 SCT022 OVC028 N/A N/A N/A 49 F N/A 4508
16/04/20 04:17 360 11 N/A N/A 30.05 52(F), 11(C) 46(F), 8(C) 82% 10+ SCT014 BKN022 OVC026 N/A N/A N/A 48 F N/A 4507
16/04/20 04:16 350 11 N/A N/A 30.05 52(F), 11(C) 46(F), 8(C) 82% 10+ SCT014 BKN022 OVC026 N/A N/A N/A 48 F N/A 4506
16/04/20 04:15 350 11 N/A N/A 30.05 52(F), 11(C) 46(F), 8(C) 82% 10+ SCT014 BKN022 OVC026 N/A N/A N/A 48 F N/A 4505
16/04/20 04:14 350 12 N/A N/A 30.05 52(F), 11(C) 46(F), 8(C) 82% 10+ SCT014 BKN022 OVC026 N/A N/A N/A 48 F N/A 4504